Regional Weather Roundup
Issued by NWS

Home | Current Version | Previous Version | Graphics & Text | Print | Product List | Glossary On
Versions: 1 2 3 4 5 6 7 8 9 10 11 12 13 14 15 16 17 18 19 20 21 22 23 24 25 26 27 28 29 30 31 32 33 34 35 36 37 38 39 40 41 42 43 44 45 46 47 48 49 50
000
ASUS43 KLOT 300500
RWRIL

ILLINOIS REGIONAL WEATHER ROUNDUP
NATIONAL WEATHER SERVICE CHICAGO/ROMEOVILLE IL
1200 AM CDT THU JUL 30 2015

NOTE: "FAIR" INDICATES FEW OR NO CLOUDS BELOW 12,000 FEET WITH NO
SIGNIFICANT WEATHER AND/OR OBSTRUCTIONS TO VISIBILITY.

* THESE STATIONS ARE NOT UNDER NWS QUALITY CONTROL. THEY ALSO MAY NOT
  REPORT WEATHER SUCH AS PRECIPITATION OR FOG.

ILZ001-002-007-009-015-016-024-300600-
NORTHWEST ILLINOIS

CITY           SKY/WX    TMP DP  RH WIND       PRES   REMARKS
MOLINE         CLEAR     67  60  78 CALM      30.09R
STERLING*      CLEAR     66  61  82 W7        30.06R
$$

ILZ003-004-008-010-011-017-018-300600-
NORTH CENTRAL ILLINOIS

CITY           SKY/WX    TMP DP  RH WIND       PRES   REMARKS
ROCKFORD       CLEAR     67  58  72 W6        30.06R
$$

ILZ005-006-012>014-019>023-300600-
NORTHEAST ILLINOIS

CITY           SKY/WX    TMP DP  RH WIND       PRES   REMARKS
CHICAGO-OHARE  CLEAR     72  56  57 W8        30.02R
CHICAGO-MIDWAY CLEAR     76  55  48 W10       30.02R
AURORA         CLEAR     63  57  81 W7        30.05R
LANSING*       CLEAR     69  55  60 W5        30.03R
WAUKEGAN       CLEAR     71  54  54 VRB6      30.00R
DUPAGE AIRPORT CLEAR     68  56  65 W6        30.03S
WHEELING       CLEAR     73  54  51 W8        30.02R
NORTHERLY ISL    N/A     76  55  48 W8          N/A
$$

LMZ740>746-300600-
SOUTHERN LAKE MICHIGAN

STATION/POSITION SKY/WX   TEMP    WIND        PRES    VSBY  WAVE
                          AIR SEA DIR/SP/G                  HT/PER
                          (F)     (DEG/KT/KT) (MB)    (MI)  (FT/S)
HARRISON CRIB              77     270/ 14/ 17   N/A
BURNHAM HARBOR             77     290/  7/ 10   N/A
BURNS HARBOR               75     260/ 12/ 14 1016.6F
MICHIGAN CITY              75     230/ 14/ 15   N/A
MICHIGAN CITY 6N           76 74  270/ 12/ 14   N/A           3/ 3
ST. JOSEPH                 76 75  300/ 14/ 16   N/A           3/ 3
$$

ILZ025>027-034>036-040-047-049-050-058-095>099-300600-
WEST-CENTRAL ILLINOIS

CITY           SKY/WX    TMP DP  RH WIND       PRES   REMARKS
QUINCY         CLEAR     71  61  70 W5        30.14R
MACOMB*        CLEAR     65  63  92 W6        30.14R
$$

ILZ028>032-037-038-041>044-048-051>054-059>061-300600-
CENTRAL ILLINOIS

CITY           SKY/WX    TMP DP  RH WIND       PRES   REMARKS
DECATUR        CLEAR     73  58  59 NW8       30.10R
PEORIA         CLEAR     71  61  70 W5        30.10R
SPRINGFIELD    CLEAR     66  61  84 W5        30.11S
TAYLORVILLE    NOT AVBL
$$

ILZ033-039-045-046-055>057-062-063-300600-
EAST-CENTRAL ILLINOIS

CITY           SKY/WX    TMP DP  RH WIND       PRES   REMARKS
CHAMPAIGN      CLEAR     65  61  87 MISG      30.09R
MATTOON        PTCLDY    64  57  78 NW8       30.08S
$$

ILZ079-100>102-300600-
SOUTHWEST ILLINOIS

CITY           SKY/WX    TMP DP  RH WIND       PRES   REMARKS
BELLEVILLE     CLEAR     71  62  71 N2        30.10R
CAHOKIA*       CLEAR     73  60  63 CALM      30.11S
SPARTA*        CLEAR     73  66  76 N3        30.11S
$$

ILZ064>066-069>071-074>076-080>082-084>086-088>090-092>094-300600-
SOUTH-CENTRAL ILLINOIS

CITY           SKY/WX    TMP DP  RH WIND       PRES   REMARKS
CARBONDALE     CLEAR     74  67  78 N6        30.09R
MT. VERNON     CLEAR     72  63  73 CALM      30.10S
SALEM*         CLEAR     71  63  77 N3        30.10S
$$

ILZ067-068-072-073-078-083-087-091-300600-
SOUTHEAST ILLINOIS

CITY           SKY/WX    TMP DP  RH WIND       PRES   REMARKS
LAWRENCEVILLE  PTCLDY    71  65  81 NW5       30.07R
FLORA*         PTCLDY    70  63  77 NW5       30.09R
HARRISBURG*    PTCLDY    78  69  74 N5        30.08R
ROBINSON*      PTCLDY    67  64  93 NW3       30.08R
CARMI*         PTCLDY    75  62  64 CALM      30.07R
$$

ABBREVIATIONS USED IN REMARKS
   TC - TEMPERATURE IN CELSIUS
  WCI - WIND CHILL INDEX
   HX - HEAT INDEX
  VSB - VISIBILITY
$$




USA.gov is the U.S. government's official web portal to all federal, state and local government web resources and services.